www.pogodaiklimat.ru

Погода и климат >> Архив погоды >> Россия >> Челябинская область >> Катав-Ивановск


ПОГОДА в Катав-Ивановске

  • Прогноз погоды в Катав-Ивановске
  • Монитор погоды в Катав-Ивановске
  • Климат города

АРХИВ ПОГОДЫ в Катав-Ивановске

Время (UTC), дата Ветер
(напр.,м/с)
 
Видим.   Явления Облачность Т
(С)
Тd
(С)
f
(%)
Тe
(С)
Тes
(С)
Комфортность P
(гПа)
Po
(гПа)
Тmin
(С)
Tmax
(С)
R
(мм)
R24
(мм)
S
(см)
09 10.12 Ю 1 20 км в посл. час снег 9/0
[Ac As]
-12.2 -14.3 84 -14 -14 1022.3 960.8
12 10.12 ЮЗ 1 10 км слабый снег 10/0
[As op]
-13.6 -15.6 85 -16 -16 1024.8 962.8
15 10.12 Ю 1 4000 м слабый снег 10/0
[As trans]
-15.5 -17.6 84 -18 -18 1027.4 964.7 -10.9 0.9
18 10.12 Ю 2 4000 м слабый снег 10/0
[As trans]
-16.0 -17.8 86 -21 -21 1028.7 965.9
21 10.12 Ю 2 4000 м слабый снег 10/0
[As trans]
-16.1 -18.0 85 -21 -21 1029.7 966.8
00 11.12 Ю 2 10 км {снег} ясно -18.9 -20.9 84 -25 -25 1031.6 967.9
03 11.12 Ю 1 10 км ясно -19.6 -21.5 85 -23 -23 1032.7 968.7 -21.1 0.2 24
06 11.12 ЮВ 2 20 км ясно -21.4 -23.7 82 -27 -27 1034.1 969.7 -22.4
09 11.12 штиль 0 50 км ясно -15.8 -18.3 81 -16 -15 1033.2 970.2
12 11.12 ЮВ 1 50 км ясно -17.0 -18.8 86 -20 -20 1034.2 970.8
15 11.12 ЮВ 1 4000 м ясно -19.3 -21.3 84 -22 -22 1035.5 971.5 -15.8
18 11.12 Ю 2 4000 м ясно -21.2 -23.4 82 -27 -27 1036.1 971.6
21 11.12 ЮВ 1 4000 м ясно -22.5 -24.9 81 -26 -26 1037.1 972.2
00 12.12 Ю 2 4000 м ясно -23.0 -25.3 81 -29 -29 1037.3 972.2
03 12.12 ЮВ 2 10 км ясно -22.0 -24.3 82 -28 -28 1038.0 973.1 -23.7 22
06 12.12 В 1 20 км 8/0
[Ci fib]
-21.2 -23.7 80 -24 -24 1038.6 973.9
09 12.12 штиль 0 50 км 10/0
[As trans]
-15.8 -17.8 85 -16 -15 1037.2 974.0
12 12.12 Ю 2 50 км 10/0
[As trans]
-11.8 -13.2 89 -16 -16 1037.1 974.8
15 12.12 Ю 1 50 км 10/0
[]
-13.4 -14.7 90 -16 -16 1038.2 975.4 -11.4
18 12.12 ЮВ 2 4000 м 10/0
[As trans]
-14.1 -15.5 89 -19 -19 1038.7 975.7
21 12.12 штиль 0 4000 м 10/0
[As trans]
-17.1 -18.8 87 -17 -17 1039.8 976.1
00 13.12 штиль 0 4000 м 10/0
[As trans]
-18.6 -20.5 85 -19 -19 1040.4 976.3
03 13.12 ЮВ 2 10 км ясно -17.8 -19.7 85 -23 -23 1040.5 976.5 -19.0 22
06 13.12 ЮВ 2 20 км 10/0
[Ci sp]
-15.4 -17.1 87 -20 -20 1040.1 976.7
09 13.12 штиль 0 50 км 3/0
[Ci fib]
-11.6 -13.8 84 -12 -11 1038.6 976.2
12 13.12 ЮВ 2 50 км 4/0
[Ci fib]
-11.2 -12.4 91 -16 -16 1038.3 976.0
15 13.12 ЮВ 1 4000 м ясно -13.6 -15.0 89 -16 -16 1038.6 975.8 -10.0
18 13.12 Ю 1 4000 м ясно -15.1 -16.9 86 -18 -18 1039.1 975.9
21 13.12 Ю 3 4000 м ясно -13.9 -15.4 88 -20 -20 1038.4 975.5
00 14.12 Ю 3 4000 м ясно -12.6 -14.4 86 -19 -19 1038.6 976.0
03 14.12 Ю 2 10 км 8/0
[Ci fib]
-11.0 -12.8 87 -16 -16 1037.8 975.6 -15.2 21
06 14.12 Ю 2 50 км 9/0
[Ci sp]
-8.6 -11.1 82 -13 -13 1037.5 975.9
09 14.12 Ю 1 50 км 9/0
[Ci sp]
-5.8 -8.9 79 -8 -7 1036.8 975.8
12 14.12 ЮЗ 1 50 км 9/9 600 м
[Sc]
-5.3 -8.0 81 -8 -8 1037.2 976.4
15 14.12 Ю 2 4000 м 9/9 600 м
[Sc]
-5.9 -8.0 85 -10 -10 1038.0 977.0 -4.9
18 14.12 Ю 1 4000 м ясно -7.4 -10.0 82 -10 -10 1038.6 977.2
21 14.12 Ю 4 4000 м ясно -8.0 -11.4 76 -15 -15 1038.2 976.7
00 15.12 ЮВ 2 4000 м ясно -10.3 -12.6 83 -15 -15 1039.1 977.0
03 15.12 Ю 2 4000 м ясно -10.1 -12.2 85 -15 -15 1040.0 977.9 -11.0 18
06 15.12 Ю 2 50 км 10/0
[Ac As]
-7.4 -11.2 74 -12 -12 1039.9 978.5
09 15.12 Ю 3 50 км 10/0
[Ac lent Ci fib]
-6.4 -10.9 70 -12 -12 1039.7 978.5
12 15.12 ЮЗ 1 50 км 8/0
[Ac lent Ci sp]
-8.3 -10.8 82 -11 -11 1040.4 978.7
15 15.12 В 1 4000 м ясно -10.7 -12.7 85 -13 -13 1041.3 979.0 -5.7
18 15.12 Ю 2 4000 м ясно -10.8 -13.1 83 -15 -15 1041.3 979.0
21 15.12 ЮВ 2 4000 м ясно -13.8 -15.7 86 -19 -19 1042.0 978.9
00 16.12 ЮВ 2 4000 м ясно -15.3 -17.0 87 -20 -20 1043.0 979.5
03 16.12 ЮВ 2 4000 м ясно -16.6 -18.5 85 -22 -22 1043.4 979.5 -16.6 16
06 16.12 ЮВ 2 50 км 10/0
[Cs]
-15.1 -17.5 82 -20 -20 1043.4 979.9 -17.4
09 16.12 Ю 1 50 км 10/0
[Ci sp]
-10.6 -13.9 77 -13 -12 1041.8 979.5
12 16.12 ЮВ 1 50 км 10/0
[Ac trans Cs]
-11.0 -13.5 82 -13 -13 1042.0 979.6
15 16.12 В 1 4000 м ясно -14.0 -15.4 89 -16 -16 1043.4 980.2 -9.0
18 16.12 Ю 2 4000 м ясно -16.2 -17.8 87 -21 -21 1043.8 980.1
21 16.12 ЮВ 2 4000 м ясно -18.6 -20.8 83 -24 -24 1044.6 980.2
00 17.12 Ю 2 4000 м ясно -18.9 -21.3 81 -25 -25 1045.1 980.6
03 17.12 ЮВ 2 4000 м ясно -21.5 -23.8 82 -28 -28 1046.3 981.0 -22.2 15
06 17.12 ЮВ 1 50 км 4/0
[Ci fib]
-19.4 -21.8 81 -22 -22 1045.8 981.1 -22.3

 

Местоположение метеостанции Катав-Ивановск (Челябинская область, Россия): широта 54.77 долгота 58.22 высота над уровнем моря 477 м.

В архиве по умолчанию представлена погода в Катав-Ивановске за последнюю неделю. Архивные данные за месяц целиком и за предыдущие месяцы, начиная с января 2011 года, Вы можете получить, выбрав интересующий диапазон дат из раскрывающегося списка и нажав кнопку "Ввод!".

Внимание! Время в таблицах - всемирное. Для получения местного времени необходимо прибавить поправку, которая в Катав-Ивановске равна 5 ч.

Смотрите также архив погоды в соседних городах и на ближайших метеорологических станциях:

Погода в Улу-Теляке (Башкирия, Россия) (83 км)
Погода в Учалах (Башкирия, Россия) (90 км)
Погода в Белорецке (Башкирия, Россия) (94 км)
Погода в Архангельском (Башкирия, Россия) (100 км)
Погода в Златоусте (Челябинская область, Россия) (103 км)
Погода в Дуване (Башкирия, Россия) (105 км)
Погода в Тукане (Башкирия, Россия) (109 км)
Погода в Верхнеуральске (Челябинская область, Россия) (118 км)
Погода в Миассе (Челябинская область, Россия) (122 км)
Погода в Емашах (Башкирия, Россия) (131 км)

Пояснения к столбцам:

Ветер - указаны скорость ветра в м/с - средняя за 10 мин, порывы в срок и между сроками (в фигурных скобках) и направление, откуда дует ветер: С - северный, СВ - северо-восточный, В - восточный, ЮВ - юго-восточный, Ю - южный, ЮЗ - юго-западный, З - западный, СЗ - северо-западный.
Видимость - горизонтальная дальность видимости в метрах или километрах. При видимости от 1 до 10 км при отсутствии осадков обычно наблюдается дымка, при ухудшении видимости до 1 км и менее - туман. В сухую погоду видимость может ухудшаться дымом, пылью или мглою.
Явления - указаны атмосферные явления, наблюдавшиеся в срок или в последний час перед сроком; фигурными скобками обозначены явления, наблюдавшиеся между сроками (за 1-3 часа до срока); квадратными скобками обозначены град или гололедные отложения с указанием их диаметра в мм.
Облачность - указаны через наклонную черту общая и нижняя облачность в баллах и высота нижней границы облаков в метрах; квадратными скобками обозначены формы облаков: Ci - перистые, Cs - перисто-слоистые, Cc - перисто-кучевые, Ac - высококучевые, As - высокослоистые, Sc - слоисто-кучевые, Ns - слоисто-дождевые, Cu - кучевые, Cb - кучево-дождевые. Подробнее классификацию облаков см. в Атласе облаков (PDF).
T - Температура воздуха - температура, измеренная на высоте 2 м над землей.
Td - Температура точки росы - температура, при понижении до которой содержащийся в воздухе водяной пар достигнет насыщения.
f - Относительная влажность воздуха - влажноcть воздуха, измеренная на высоте 2 м над землей.
Te - Эффективная температура - температура, которую ощущает одетый по сезону человек в тени. Характеристика душности погоды. При расчете учитывается влияние влажности воздуха и скорости ветра на теплоощущения человека.
Tes - Эффективная температура на солнце - температура, которую ощущает человек, с поправкой на солнечный нагрев. Характеристика знойности погоды. Зависит от высоты солнца над горизонтом, облачности и скорости ветра. Ночью, в пасмурную погоду, а также при ветре 12 м/с и более поправка равна нулю.
P - Атмосферное давление - приведенное к уровню моря атмосферное давление.
Po - Атмосферное давление - измеренное на уровне метеостанции атмосферное давление.
Tmin - Минимальная температура - минимум температуры воздуха на высоте 2 м над землей.
Tmax - Максимальная температура - максимум температуры воздуха на высоте 2 м над землей.
R - Количество осадков - Количество выпавших осадков за период времени, мм. При наведении курсора мыши на число - период времени, за который выпало указанное количество осадков.
R24 - Количество осадков - Количество выпавших осадков за 24 часа, мм.
S - Снежный покров - Высота снежного покрова, см. При наведении курсора мыши на число - состояние снежного покрова и степень покрытия местности в баллах.